This demonstration page uses our WeatherBlox Daily Observations layout. Learn more.

41.55636, -103.73856

Hourly Observations for August 2, 2019

Temp ( °F °C ) Dew Point ( °F °C ) Humidity (%) Winds ( mph kmh ) Pressure ( in mb ) Visibility ( mi km ) Precip ( " mm )
12:53 am 00:53 Mostly Cloudy 68 20 66 18.9 93 93 E 5 7 30 1016 10 16.09344 0 0
1:53 am 01:53 Mostly Clear 67 19.4 66 18.9 97 97 SE 3 6 29.97 1015 9 14.484096 0 0
2:53 am 02:53 Mostly Cloudy with Mist and Fog 67 19.4 66 18.9 97 97 ESE 7 11 29.94 1014 6 9.656064 0 0
3:11 am 03:11 Mostly Cloudy with Mist and Fog 67 19.4 66 18.9 97 97 ESE 8 13 29.91 1013 3 4.828032 0 0
3:53 am 03:53 Clear 65 18.3 65 18.3 100 100 SE 3 6 29.94 1014 7 11.265408 0 0
4:05 am 04:05 Mostly Clear with Mist and Fog 65 18.3 64 17.8 97 97 E 5 7 29.94 1014 1.5 2.414016 0 0
4:10 am 04:10 Mostly Cloudy with Fog 64 18 64 18 100 100 E 5 7 29.94 1014 0.25 0.402336 0 0
4:40 am 04:40 Mostly Cloudy with Fog 64 18 64 18 100 100 E 6 9 29.94 1014 0.5 0.804672 0 0
4:53 am 04:53 Mostly Cloudy with Fog 65 18.3 65 18.3 100 100 ESE 7 11 29.94 1014 0.25 0.402336 0 0
5:31 am 05:31 Mostly Cloudy with Fog 65 18.3 65 18.3 100 100 E 5 7 29.97 1015 0.5 0.804672 0 0
5:53 am 05:53 Mostly Cloudy with Fog 65 18.3 65 18.3 100 100 E 6 9 29.97 1015 0.25 0.402336 0 0
6:00 am 06:00 Cloudy with Mist and Fog 65 18.3 65 18.3 100 100 NE 5 7 29.97 1015 0.75 1.207008 0 0
6:24 am 06:24 Cloudy with Fog 66 19 66 19 100 100 E 3 6 29.97 1015 0.25 0.402336 0 0
6:45 am 06:45 Cloudy with Mist and Fog 66 18.9 66 18.9 100 100 ENE 3 6 29.97 1015 0.75 1.207008 0 0
6:53 am 06:53 Cloudy with Mist and Fog 66 18.9 66 18.9 100 100 Calm 30 1016 1 1.609344 0 0
7:03 am 07:03 Cloudy with Mist and Fog 66 18.9 65 18.3 96 96 SSE 3 6 29.97 1015 3 4.828032 0 0
7:53 am 07:53 Cloudy 68 20 65 18.3 90 90 Calm 30 1016 9 14.484096 0 0
8:53 am 08:53 Cloudy 70 21.1 65 18.3 84 84 Calm 30.03 1017 10 16.09344 0 0
9:27 am 09:27 Cloudy 70 21.1 65 18.3 84 84 Calm 29.94 1014 10 16.09344 0 0
9:53 am 09:53 Partly Cloudy 73 22.8 65 18.3 76 76 Calm 30.03 1017 10 16.09344 0 0
10:38 am 10:38 Mostly Cloudy 75 24 64 18 69 69 WNW 6 9 29.91 1013 10 16.09344 0 0
10:53 am 10:53 Cloudy 77 25 65 18.3 66 66 WNW 5 7 30 1016 10 16.09344 0 0
11:44 am 11:44 Partly Cloudy 81 27 66 19 62 62 WNW 7 11 29.85 1011 10 16.09344 0 0
11:53 am 11:53 Mostly Sunny 80 26.7 66 18.9 62 62 NNW 5 7 30 1016 10 16.09344 0 0
12:53 pm 12:53 Sunny 85 29.4 66 18.9 53 53 NW 9 15 30 1016 10 16.09344 0 0
1:53 pm 13:53 Mostly Sunny 87 30.6 66 18.9 50 50 Calm 29.97 1015 10 16.09344 0 0
2:53 pm 14:53 Partly Cloudy 89 31.7 60 15.6 38 38 NNE 6 9 29.97 1015 10 16.09344 0 0
3:53 pm 15:53 Sunny 90 32.2 60 15.6 37 37 NE 9 15 29.94 1014 10 16.09344 0 0
4:53 pm 16:53 Sunny 89 31.7 61 16.1 39 39 ENE 7 11 29.97 1015 10 16.09344 0 0
5:53 pm 17:53 Sunny 87 30.6 60 15.6 40 40 NE 8 13 29.97 1015 10 16.09344 0 0
6:53 pm 18:53 Sunny 83 28.3 61 16.1 48 48 E 8 13 29.97 1015 10 16.09344 0 0
7:53 pm 19:53 Sunny 77 25 65 18.3 66 66 ENE 6 9 30 1016 10 16.09344 0 0
8:53 pm 20:53 Clear 71 21.7 63 17.2 76 76 ENE 8 13 30.03 1017 10 16.09344 0 0
9:53 pm 21:53 Clear 69 20.6 62 16.7 78 78 ENE 8 13 30.03 1017 10 16.09344 0 0
10:53 pm 22:53 Clear 67 19.4 61 16.1 81 81 SSE 3 6 30.06 1018 10 16.09344 0 0
11:53 pm 23:53 Clear 66 18.9 61 16.1 84 84 Calm 30.06 1018 10 16.09344 0 0

Powered by AerisWeather